Location: Sunny Point
(33.0946°N, 85.0574°W)
Time: 08:32:25
(UTC+00:00)

AO-7 - Visible Passes

Search period start: 19 July 2024 00:00
Search period end: 29 July 2024 00:00
Orbit: 1439 x 1459 km, 102.0° (Epoch: 18 July)

Date Brightness Start Highest point End Pass type
(mag) Time Alt. Az. Time Alt. Az. Time Alt. Az.
19 Jul ? 09:39:33 10° NE 09:44:54 18° E 09:50:12 10° SE visible
21 Jul ? 09:33:03 10° ENE 09:37:42 16° E 09:42:19 10° SE visible
23 Jul ? 09:26:46 10° ENE 09:30:30 13° E 09:34:13 10° ESE visible
24 Jul ? 10:16:27 10° NE 10:23:55 35° E 10:31:21 10° SSE visible
25 Jul ? 09:20:56 10° ENE 09:23:18 11° E 09:25:38 10° ESE visible
26 Jul ? 10:09:34 10° NE 10:16:46 31° E 10:23:56 10° SSE visible
28 Jul ? 10:02:44 10° NE 10:09:37 28° E 10:16:28 10° SSE visible
